| time (UTC) | temp F | wind direction | speed MPH | gust MPH | rain 1hr in | rain 24hr in | rain mn in | humidity % | barometer mb |
| 20260503201500 | 57 | 244 | 7.0 | 19.0 | 0.00 | 0.00 | 0.00 | 49 | 1010.3 |
| 20260503200004 | 57 | 204 | 8.0 | 20.0 | 0.00 | 0.00 | 0.00 | 47 | 1010.6 |
| 20260503194500 | 56 | 243 | 8.0 | 17.0 | 0.00 | 0.00 | 0.00 | 46 | 1010.8 |
| 20260503193000 | 57 | 225 | 7.0 | 17.0 | 0.00 | 0.00 | 0.00 | 46 | 1011.3 |
| 20260503190004 | 55 | 265 | 7.0 | 14.0 | 0.00 | 0.00 | 0.00 | 47 | 1011.6 |
| 20260503183000 | 54 | 278 | 7.0 | 19.0 | 0.00 | 0.00 | 0.00 | 45 | 1012.3 |
| 20260503181500 | 55 | 235 | 7.0 | 14.0 | 0.00 | 0.00 | 0.00 | 45 | 1012.4 |
| 20260503180006 | 54 | 262 | 6.0 | 13.0 | 0.00 | 0.00 | 0.00 | 45 | 1012.4 |
| 20260503174500 | 53 | 269 | 5.0 | 13.0 | 0.00 | 0.00 | 0.00 | 44 | 1012.5 |
| 20260503173000 | 54 | 289 | 6.0 | 15.0 | 0.00 | 0.00 | 0.00 | 50 | 1012.7 |
| 20260503171501 | 53 | 238 | 6.0 | 14.0 | 0.00 | 0.00 | 0.00 | 49 | 1012.8 |
| 20260503081459 | 34 | 223 | 0.0 | 0.0 | 0.00 | 0.00 | 0.00 | 89 | 1014.6 |
| 20260503071501 | 36 | 226 | 0.0 | 2.0 | 0.00 | 0.00 | 0.00 | 86 | 1014.6 |
| 20260503054458 | 38 | 244 | 0.0 | 2.0 | 0.00 | 0.00 | 0.00 | 80 | 1014.8 |
| 20260503052958 | 39 | 244 | 0.0 | 0.0 | 0.00 | 0.00 | 0.00 | 80 | 1014.9 |
| 20260503051459 | 39 | 244 | 0.0 | 0.0 | 0.00 | 0.00 | 0.00 | 80 | 1015.2 |
| 20260503050001 | 40 | 236 | 0.0 | 3.0 | 0.00 | 0.00 | 0.00 | 80 | 1015.3 |
| 20260503044500 | 40 | 225 | 0.0 | 2.0 | 0.00 | 0.00 | 0.00 | 80 | 1015.4 |
| 20260503041458 | 40 | 267 | 1.0 | 4.0 | 0.00 | 0.00 | 0.00 | 79 | 1015.3 |
| 20260503040007 | 40 | 274 | 1.0 | 3.0 | 0.00 | 0.00 | 0.00 | 79 | 1015.5 |
| 20260503034502 | 41 | 270 | 1.0 | 4.0 | 0.00 | 0.00 | 0.00 | 78 | 1015.5 |
| 20260503033002 | 41 | 261 | 1.0 | 5.0 | 0.00 | 0.00 | 0.00 | 79 | 1015.5 |
| 20260503031502 | 41 | 239 | 2.0 | 4.0 | 0.00 | 0.00 | 0.00 | 79 | 1015.5 |
| 20260503030006 | 41 | 232 | 2.0 | 6.0 | 0.00 | 0.00 | 0.00 | 79 | 1015.6 |
| 20260503024501 | 41 | 238 | 2.0 | 7.0 | 0.00 | 0.00 | 0.00 | 78 | 1015.7 |
| 20260503023001 | 41 | 236 | 1.0 | 7.0 | 0.00 | 0.00 | 0.00 | 78 | 1015.9 |
| 20260503021501 | 41 | 265 | 1.0 | 5.0 | 0.00 | 0.00 | 0.00 | 77 | 1016.1 |
| 20260503020007 | 41 | 246 | 2.0 | 7.0 | 0.00 | 0.00 | 0.00 | 77 | 1016.0 |
| 20260503014501 | 41 | 251 | 1.0 | 4.0 | 0.00 | 0.00 | 0.00 | 77 | 1016.0 |
| 20260503013001 | 41 | 251 | 1.0 | 3.0 | 0.00 | 0.00 | 0.00 | 76 | 1015.9 |
| 20260503011501 | 41 | 220 | 1.0 | 6.0 | 0.00 | 0.00 | 0.00 | 76 | 1015.9 |
| 20260503010004 | 42 | 244 | 1.0 | 3.0 | 0.00 | 0.00 | 0.00 | 76 | 1015.9 |
| 20260503004501 | 42 | 201 | 2.0 | 4.0 | 0.00 | 0.00 | 0.00 | 75 | 1015.7 |
| 20260503001501 | 42 | 263 | 2.0 | 7.0 | 0.00 | 0.00 | 0.00 | 75 | 1015.5 |
| 20260503000005 | 42 | 240 | 2.0 | 6.0 | 0.00 | 0.00 | 0.00 | 75 | 1015.3 |
| 20260502234502 | 42 | 277 | 2.0 | 8.0 | 0.00 | 0.00 | 0.00 | 74 | 1015.4 |
| 20260502233001 | 42 | 240 | 2.0 | 8.0 | 0.00 | 0.00 | 0.00 | 75 | 1015.4 |
| 20260502231502 | 42 | 251 | 2.0 | 7.0 | 0.00 | 0.00 | 0.00 | 75 | 1015.3 |
| 20260502230004 | 42 | 209 | 3.0 | 6.0 | 0.00 | 0.00 | 0.00 | 75 | 1015.3 |
| 20260502224501 | 42 | 244 | 3.0 | 6.0 | 0.00 | 0.00 | 0.00 | 75 | 1015.3 |
| 20260502223001 | 42 | 258 | 4.0 | 8.0 | 0.00 | 0.00 | 0.00 | 75 | 1015.3 |
| 20260502221501 | 42 | 268 | 5.0 | 12.0 | 0.00 | 0.00 | 0.00 | 73 | 1015.3 |
| 20260502220007 | 42 | 279 | 3.0 | 10.0 | 0.00 | 0.00 | 0.00 | 73 | 1015.3 |
| 20260502214501 | 43 | 268 | 5.0 | 11.0 | 0.00 | 0.02 | 0.00 | 72 | 1015.2 |
| 20260502213001 | 43 | 224 | 3.0 | 9.0 | 0.00 | 0.02 | 0.00 | 71 | 1015.1 |
| 20260502211501 | 44 | 269 | 4.0 | 13.0 | 0.00 | 0.02 | 0.00 | 69 | 1015.2 |
| 20260502210004 | 44 | 266 | 4.0 | 9.0 | 0.00 | 0.02 | 0.00 | 64 | 1015.0 |